DW9848 Weather Reports


time (UTC)temp
F
wind
direction
speed
knots
gust
knots
rain 1hr
in
rain 24hr
in
rain mn
in
humidity
%
barometer
mb
20260508004531 52 19 0.0 0.0 0.00 0.00 0.00 77 1002.2
20260508003016 52 19 0.0 0.9 0.00 0.00 0.00 77 1002.4
20260508001515 53 40 0.9 2.6 0.00 0.00 0.00 77 1002.4
20260508000015 53 360 0.0 1.7 0.00 0.00 0.00 77 1002.4
20260507234521 53 360 0.0 0.0 0.00 0.00 0.00 77 1002.4
20260507233022 53 360 0.0 0.0 0.00 0.00 0.00 77 1002.4
20260507231510 54 360 0.0 1.7 0.00 0.00 0.00 77 1002.4
20260507230009 54 360 0.0 0.9 0.00 0.00 0.00 76 1002.5
20260507224510 54 360 0.0 1.7 0.00 0.00 0.00 76 1002.5
20260507223006 55 245 0.0 0.0 0.00 0.00 0.00 76 1002.5
20260507221502 55 245 0.0 0.0 0.00 0.00 0.00 76 1002.5
20260507220100 56 245 0.0 0.0 0.00 0.00 0.00 76 1002.4
20260507214559 56 245 0.0 0.0 0.00 0.00 0.00 76 1002.3
20260507213058 56 245 0.0 0.0 0.00 0.00 0.00 76 1002.1
20260507211604 57 245 0.0 0.0 0.00 0.00 0.00 76 1002.1
20260507210057 58 245 0.0 0.9 0.00 0.00 0.00 75 1002.0
20260507204557 59 245 0.0 0.0 0.00 0.00 0.00 75 1002.0
20260507203056 59 245 0.0 0.0 0.00 0.00 0.00 75 1001.8
20260507201556 59 245 0.0 0.9 0.00 0.00 0.00 75 1001.8
20260507200055 58 245 0.0 0.0 0.00 0.00 0.00 76 1001.7
20260507194554 58 245 0.0 1.7 0.00 0.00 0.00 76 1001.4
20260507193058 59 245 0.0 0.0 0.00 0.00 0.00 75 1001.2
20260507191553 61 245 0.0 0.0 0.00 0.00 0.00 74 1000.9
20260507190052 63 245 0.0 0.0 0.00 0.00 0.00 71 1000.6
20260507184551 65 245 0.0 0.0 0.00 0.00 0.00 64 1000.5
20260507183051 66 245 0.0 0.0 0.00 0.00 0.00 58 1000.5
20260507181550 67 240 0.0 0.9 0.00 0.00 0.00 55 1000.3
20260507180051 67 240 0.0 1.7 0.00 0.00 0.00 54 1000.2
20260507174614 68 227 0.0 2.6 0.00 0.00 0.00 55 1000.1
20260507173049 68 233 0.0 1.7 0.00 0.00 0.00 53 999.9
20260507171602 69 212 0.9 2.6 0.00 0.00 0.00 52 999.9
20260507170046 70 234 0.9 3.5 0.00 0.00 0.00 50 999.9
20260507164552 71 193 1.7 5.2 0.00 0.00 0.00 50 999.9
20260507163045 70 221 0.9 5.2 0.00 0.00 0.00 50 999.9
20260507161550 71 239 0.9 3.5 0.00 0.00 0.00 48 999.8
20260507160109 71 202 0.9 3.5 0.00 0.00 0.00 48 999.8
20260507154543 70 218 2.6 6.1 0.00 0.00 0.00 49 999.8
20260507153042 72 302 0.9 6.1 0.00 0.00 0.00 48 999.9
20260507151542 71 241 0.9 4.3 0.00 0.00 0.00 48 999.9
20260507150041 72 238 0.9 5.2 0.00 0.00 0.00 48 1000.0
20260507144539 72 234 0.9 6.1 0.00 0.00 0.00 49 1000.0
20260507143038 71 227 1.7 7.0 0.00 0.00 0.00 47 1000.1
20260507141537 72 232 0.9 4.3 0.00 0.00 0.00 51 1000.2
20260507140044 71 238 0.9 5.2 0.00 0.00 0.00 54 1000.3
20260507134535 72 257 0.0 3.5 0.00 0.00 0.00 56 1000.4
20260507133033 71 225 0.9 2.6 0.00 0.00 0.00 54 1000.6
20260507131553 69 201 1.7 6.1 0.00 0.00 0.00 56 1000.8
20260507130027 69 237 1.7 8.7 0.00 0.00 0.00 58 1000.9
20260507124524 68 214 0.0 2.6 0.00 0.00 0.00 62 1001.0
20260507123028 68 256 0.0 3.5 0.00 0.00 0.00 60 1001.1
20260507121522 68 248 3.5 7.8 0.00 0.00 0.00 58 1001.1
20260507120029 68 84 0.0 7.0 0.00 0.00 0.00 58 1001.2
20260507114519 68 220 1.7 6.1 0.00 0.00 0.00 60 1001.3
20260507113044 66 321 0.9 7.0 0.00 0.00 0.00 61 1001.4
20260507111518 68 208 0.0 5.2 0.00 0.00 0.00 63 1001.5
20260507110015 67 89 0.9 4.3 0.00 0.00 0.00 63 1001.6
20260507104517 66 213 1.7 4.3 0.00 0.00 0.00 65 1001.8
20260507103008 65 240 0.9 6.1 0.00 0.00 0.00 67 1002.0
20260507101507 65 81 0.0 3.5 0.00 0.00 0.00 67 1002.1
20260507100002 64 198 0.9 2.6 0.00 0.00 0.00 70 1002.2
20260507094537 63 334 0.0 1.7 0.00 0.00 0.00 69 1002.2
20260507093035 62 213 0.0 2.6 0.00 0.00 0.00 72 1002.1
20260507091537 62 212 0.0 1.7 0.00 0.00 0.00 71 1002.0
20260507090030 63 71 0.0 2.6 0.00 0.00 0.00 71 1002.0
20260507084544 62 91 0.0 3.5 0.00 0.00 0.00 72 1001.9
20260507083026 60 107 0.0 3.5 0.00 0.00 0.00 75 1001.9
20260507081521 59 12 0.9 3.5 0.00 0.00 0.00 76 1002.0
20260507080017 58 88 0.9 4.3 0.00 0.00 0.00 76 1001.9
20260507074513 57 51 0.0 4.3 0.00 0.00 0.00 76 1001.8
20260507073010 55 84 2.6 5.2 0.00 0.00 0.00 77 1001.8
20260507071515 55 83 0.9 5.2 0.00 0.00 0.00 77 1001.7
20260507070015 55 12 1.7 5.2 0.00 0.00 0.00 77 1001.6
20260507064505 54 15 0.9 3.5 0.00 0.00 0.00 77 1001.5
20260507063002 54 22 1.7 4.3 0.00 0.00 0.00 77 1001.4
20260507061600 53 10 1.7 4.3 0.00 0.00 0.00 77 1001.4
20260507054557 53 38 1.7 4.3 0.00 0.00 0.00 77 1001.1
20260507053057 52 45 0.9 2.6 0.00 0.00 0.00 77 1001.0
20260507051559 52 47 0.0 3.5 0.00 0.00 0.00 77 1000.7
20260507050105 52 29 0.9 3.5 0.00 0.00 0.00 77 1000.5
20260507044554 52 48 0.9 5.2 0.00 0.00 0.00 77 1000.4
20260507043047 52 61 1.7 4.3 0.00 0.00 0.00 77 1000.3
20260507041547 52 76 0.9 3.5 0.00 0.00 0.00 76 1000.2
20260507040048 52 42 0.9 3.5 0.00 0.00 0.00 77 1000.1
20260507034544 52 44 0.9 4.3 0.00 0.00 0.00 77 1000.0
20260507033046 52 70 0.9 3.5 0.00 0.00 0.00 76 1000.0
20260507031542 52 5 0.9 3.5 0.00 0.00 0.00 76 999.9
20260507030042 52 21 1.7 4.3 0.00 0.00 0.00 76 999.9
20260507024545 52 46 1.7 4.3 0.00 0.00 0.00 76 999.9
20260507023039 52 44 1.7 5.2 0.00 0.00 0.00 76 999.9
20260507021550 52 62 0.9 3.5 0.00 0.00 0.00 76 1000.0
20260507020037 52 55 0.0 3.5 0.00 0.00 0.00 76 1000.0
20260507014535 52 52 0.9 5.2 0.00 0.00 0.00 77 999.8
20260507013036 53 45 0.9 2.6 0.00 0.00 0.00 77 999.8
20260507011537 53 26 0.0 1.7 0.00 0.00 0.00 77 999.7
20260507010041 53 74 0.0 4.3 0.00 0.00 0.00 77 999.7